Danbury, CT

1:16 PM EDT on March 30, 2017 (GMT -0400)
Danbury Municipal

Weather History for KDXR - July, 2014

Change the Weather History Date:

Sunday, July 13, 2014

  Actual Average Record
Temperature  
Mean Temperature 75 °F -  
Max Temperature 82 °F 84 °F 99 °F (1966)
Min Temperature 69 °F 60 °F 48 °F (1973)
Cooling Degree Days 10    
Growing Degree Days 25 (Base 50)    
Moisture  
Dew Point 66 °F    
Average Humidity 75    
Maximum Humidity 84    
Minimum Humidity 62    
Precipitation  
Precipitation 0.00 in - - ()
Sea Level Pressure  
Sea Level Pressure 30.02 in    
Wind  
Wind Speed 6 mph (South)    
Max Wind Speed 15 mph    
Max Gust Speed 28 mph    
Visibility 9 miles    
Events Rain    
Averages and records for this station are not official NWS values.
T = Trace of Precipitation, MM = Missing Value Source: NWS Daily Summary

Daily Weather History Graph

Daily Weather History Graph

Search for Another Location

Airport or City:

Trip Planner

Search our weather history database for the weather conditions in past years. The results will help you decide how hot, cold, wet, or windy it might be!

Date:

Astronomy

Jul. 13, 2014 Rise Set
Actual Time 5:32 AM EDT 8:26 PM EDT
Civil Twilight 4:59 AM EDT 8:59 PM EDT
Nautical Twilight 4:17 AM EDT 9:41 PM EDT
Astronomical Twilight 3:28 AM EDT 10:29 PM EDT
Moon 9:11 PM EDT (7/13) 7:00 AM EDT (7/13)
Length of Visible Light 16h 00m
Length of Day
14h 54m
Full, 98% of the Moon is Illuminated
Jul 13
Full
Jul 18
Last Quarter
Jul 26
New
Aug 3
First Quarter
Aug 10
Full

Hourly Weather History & Observations

Time (EDT) Temp. Heat Index Dew Point Humidity Pressure Visibility Wind Dir Wind Speed Gust Speed Precip Events Conditions
12:53 AM 69.1 °F - 60.1 °F 73% 30.14 in 10.0 mi Calm Calm - N/A   Partly Cloudy
1:53 AM 69.1 °F - 61.0 °F 75% 30.12 in 10.0 mi South 8.1 mph - N/A   Clear
2:53 AM 69.1 °F - 61.0 °F 75% 30.11 in 10.0 mi SSW 6.9 mph - N/A   Clear
3:53 AM 69.1 °F - 61.0 °F 75% 30.10 in 10.0 mi Calm Calm - N/A   Clear
4:53 AM 69.1 °F - 62.1 °F 78% 30.10 in 10.0 mi South 3.5 mph - N/A   Clear
5:53 AM 69.1 °F - 63.0 °F 81% 30.10 in 10.0 mi SSW 5.8 mph - N/A   Mostly Cloudy
6:53 AM 69.1 °F - 64.0 °F 84% 30.09 in 9.0 mi Calm Calm - N/A   Clear
7:53 AM 71.1 °F - 64.0 °F 78% 30.09 in 10.0 mi South 8.1 mph - N/A   Clear
8:31 AM 72.0 °F - 64.0 °F 76% 30.10 in 10.0 mi SSW 8.1 mph - N/A   Mostly Cloudy
8:53 AM 73.0 °F - 64.9 °F 76% 30.08 in 9.0 mi South 9.2 mph - N/A   Overcast
9:53 AM 73.0 °F - 66.0 °F 79% 30.06 in 8.0 mi SSW 10.4 mph - N/A   Overcast
10:53 AM 75.0 °F - 66.0 °F 73% 30.05 in 9.0 mi SSW 9.2 mph - N/A   Overcast
11:53 AM 77.0 °F - 66.9 °F 71% 30.04 in 9.0 mi South 10.4 mph 17.3 mph N/A   Mostly Cloudy
12:53 PM 79.0 °F - 68.0 °F 69% 30.03 in 9.0 mi South 13.8 mph - N/A   Scattered Clouds
1:53 PM 79.0 °F - 66.9 °F 66% 30.01 in 10.0 mi South 15.0 mph 20.7 mph N/A   Mostly Cloudy
2:01 PM 80.1 °F 82.3 °F 66.9 °F 64% 30.02 in 10.0 mi SSW 13.8 mph 20.7 mph N/A   Mostly Cloudy
2:53 PM 80.1 °F 82.3 °F 66.9 °F 64% 29.98 in 9.0 mi South 13.8 mph 27.6 mph N/A   Mostly Cloudy
3:53 PM 81.0 °F 83.3 °F 66.9 °F 62% 29.96 in 10.0 mi SSW 9.2 mph 19.6 mph N/A   Partly Cloudy
4:53 PM 80.1 °F 82.7 °F 68.0 °F 67% 29.93 in 10.0 mi South 12.7 mph 21.9 mph N/A   Clear
5:53 PM 78.1 °F - 68.0 °F 71% 29.93 in 10.0 mi South 9.2 mph - N/A   Partly Cloudy
6:53 PM 75.9 °F - 68.0 °F 76% 29.91 in 9.0 mi SSE 10.4 mph - N/A   Clear
7:53 PM 75.0 °F - 68.0 °F 79% 29.91 in 8.0 mi South 6.9 mph - N/A   Clear
8:53 PM 73.9 °F - 68.0 °F 82% 29.92 in 9.0 mi Variable 4.6 mph - N/A   Partly Cloudy
9:53 PM 73.9 °F - 68.0 °F 82% 29.92 in 9.0 mi Variable 4.6 mph - N/A   Clear
10:53 PM 73.9 °F - 68.0 °F 82% 29.92 in 8.0 mi South 6.9 mph - N/A   Partly Cloudy
11:53 PM 73.9 °F - 68.0 °F 82% 29.91 in 7.0 mi South 8.1 mph - 0.00 in Rain Light Rain